Weather History for Lumberton, NC

Change the Weather History Date:

Tuesday, March 5, 2013

  Actual Average Record
Temperature  
Mean Temperature 48 °F 51 °F  
Max Temperature 65 °F 63 °F 79 °F (2004)
Min Temperature 31 °F 39 °F 21 °F (2002)
Degree Days  
Heating Degree Days 17 14  
Month to date heating degree days 118 73  
Since 1 July heating degree days 2192 2303  
Cooling Degree Days 0 0  
Month to date cooling degree days 0 0  
Year to date cooling degree days 4 3  
Moisture  
Dew Point 40 °F    
Average Humidity 66    
Maximum Humidity 89    
Minimum Humidity 42    
Precipitation  
Precipitation 0.01 in 0.10 in 0.13 in (2014)
Month to date precipitation 0.01 0.56  
Year to date precipitation 5.58 6.43  
Sea Level Pressure  
Sea Level Pressure 29.91 in    
Wind  
Wind Speed 6 mph (SSW)    
Max Wind Speed 20 mph    
Max Gust Speed 25 mph    
Visibility 10 miles    
Events Rain    
T = Trace of Precipitation, MM = Missing Value Source: NWS Daily Summary

Daily Weather History Graph

Daily Weather History Graph

Search for Another Location

Airport:

Trip Planner

Search our weather history database for the weather conditions in past years. The results will help you decide how hot, cold, wet, or windy it might be!

Date:

Astronomy

Mar. 05, 2013 Rise Set
Actual Time 6:39 AM EST 6:15 PM EST
Civil Twilight 6:14 AM EST 6:41 PM EST
Nautical Twilight 5:45 AM EST 7:10 PM EST
Astronomical Twilight 5:16 AM EST 7:39 PM EST
Moon 1:39 AM EST (3/5) 12:03 PM EST (3/5)
Length of Visible Light 12h 26m
Length of Day
11h 35m
Last Quarter, 41% of the Moon is Illuminated
Mar 5
Last Quarter
Mar 11
New
Mar 19
First Quarter
Mar 27
Full
Apr 3
Last Quarter

Hourly Weather History & Observations

Time (EST) Temp. Dew Point Humidity Pressure Visibility Wind Dir Wind Speed Gust Speed Precip Events Conditions
12:54 AM 32.0 °F 28.0 °F 85% 30.09 in 10.0 mi Calm Calm - N/A   Clear
2:54 AM 34.0 °F 30.0 °F 85% 30.09 in 9.0 mi Calm Calm - N/A   Clear
3:54 AM 36.0 °F 32.0 °F 86% 30.09 in 10.0 mi Calm Calm - N/A   Partly Cloudy
4:54 AM 36.0 °F 30.9 °F 82% 30.10 in 10.0 mi Calm Calm - N/A   Clear
5:54 AM 35.1 °F 30.9 °F 85% 30.10 in 10.0 mi Calm Calm - N/A   Clear
6:54 AM 37.0 °F 30.9 °F 79% 30.08 in 10.0 mi Calm Calm - N/A   Clear
8:54 AM 46.9 °F 37.9 °F 71% 30.07 in 10.0 mi South 4.6 mph - N/A   Clear
9:54 AM 55.0 °F 37.0 °F 51% 30.04 in 10.0 mi SSW 6.9 mph - N/A   Clear
10:54 AM 60.1 °F 37.9 °F 44% 30.01 in 10.0 mi SSW 9.2 mph - N/A   Mostly Cloudy
11:54 AM 60.1 °F 39.0 °F 46% 30.00 in 10.0 mi WSW 12.7 mph - N/A   Overcast
12:54 PM 57.0 °F 41.0 °F 55% 29.98 in 10.0 mi SW 9.2 mph - N/A   Overcast
1:54 PM 55.9 °F 45.0 °F 67% 29.93 in 10.0 mi South 4.6 mph - 0.00 in   Overcast
2:54 PM 59.0 °F 44.1 °F 58% 29.89 in 10.0 mi South 5.8 mph - N/A   Overcast
3:54 PM 64.0 °F 43.0 °F 46% 29.85 in 10.0 mi SSW 8.1 mph - N/A   Clear
4:54 PM 63.0 °F 44.1 °F 50% 29.83 in 10.0 mi South 3.5 mph - N/A   Scattered Clouds
5:54 PM 63.0 °F 44.1 °F 50% 29.80 in 10.0 mi SSW 5.8 mph - N/A   Partly Cloudy
6:54 PM 62.1 °F 46.0 °F 56% 29.77 in 10.0 mi South 6.9 mph - N/A   Overcast
7:54 PM 60.1 °F 46.0 °F 60% 29.72 in 10.0 mi South 6.9 mph - N/A   Scattered Clouds
8:54 PM 59.0 °F 46.0 °F 62% 29.69 in 10.0 mi South 9.2 mph - N/A   Overcast
9:54 PM 57.0 °F 45.0 °F 64% 29.65 in 10.0 mi South 11.5 mph - 0.00 in Rain Light Rain
10:54 PM 55.9 °F 48.0 °F 75% 29.62 in 10.0 mi South 11.5 mph 18.4 mph 0.01 in   Overcast
11:54 PM 57.9 °F 51.1 °F 78% 29.60 in 10.0 mi SW 15.0 mph 25.3 mph N/A   Scattered Clouds